Location: Boussy-Saint-Antoine
(48.6830°N, 2.5330°E)
Time: 10:57:14
(UTC+01:00)

ISS - Visible Passes

Search period start: 21 February 2019 00:00
Search period end: 03 March 2019 00:00
Orbit: 403 x 411 km, 51.6° (Epoch: 21 February)

Date Brightness Start Highest point End Pass type
(mag) Time Alt. Az. Time Alt. Az. Time Alt. Az.
23 Feb -0.7 06:34:08 10° SSE 06:35:26 12° SE 06:36:44 10° ESE visible
25 Feb -1.7 06:26:03 10° SSW 06:28:44 24° SE 06:31:27 10° E visible
26 Feb -1.2 05:36:05 12° SSE 05:37:29 15° SE 05:39:26 10° E visible
27 Feb -3.0 06:19:43 15° SW 06:22:08 46° SSE 06:25:18 10° ENE visible
28 Feb -2.3 05:30:30 29° SSE 05:30:46 29° SE 05:33:40 10° E visible
01 Mar -0.7 04:41:11 13° ESE 04:41:11 13° ESE 04:41:48 10° E visible
01 Mar -3.9 06:13:53 26° WSW 06:15:36 84° SSE 06:18:53 10° ENE visible
02 Mar -3.2 05:24:28 53° ESE 05:24:28 53° ESE 05:27:21 10° ENE visible
